Voltar ao catálogo

EKRAN 7

AtivoComunicaçõesGEO
NORAD 12564·PAYLOAD·🇷🇺 Russia

Lançado Jun 26, 1981 de Baikonur Cosmodrome

Loading…

TLE

AtualizadoSource: Space-Track

Época: Sep 14, 2026, 14:09 UTC

1 12564U 81061A   26257.59000774 -.00000088  00000-0  00000-0 0  9995
2 12564   6.3231 292.3455 0003594  40.1543 308.4544  1.00214365130401

Acompanhe EKRAN 7 em tempo real com AllMySat

Download on the App Store